NORTHEAST SUFFOLK  -  Wind Advisory Wind Advisory     Wind Advisory Wind Advisory     Rip Current Statement Rip Current Statement     Rip Current Statement Rip Current Statement        NORTHERN NASSAU  -  Wind Advisory Wind Advisory     Wind Advisory Wind Advisory     Coastal Flood Statement Coastal Flood Statement     Rip Current Statement Rip Current Statement     Rip Current Statement Rip Current Statement        NORTHERN QUEENS  -  Wind Advisory Wind Advisory     Coastal Flood Statement Coastal Flood Statement     Rip Current Statement Rip Current Statement     Rip Current Statement Rip Current Statement        NORTHWEST SUFFOLK  -  Wind Advisory Wind Advisory     Wind Advisory Wind Advisory     Rip Current Statement Rip Current Statement     Rip Current Statement Rip Current Statement        SOUTHEAST SUFFOLK  -  Wind Advisory Wind Advisory     Wind Advisory Wind Advisory     Rip Current Statement Rip Current Statement     Rip Current Statement Rip Current Statement        SOUTHERN NASSAU  -  Wind Advisory Wind Advisory     Wind Advisory Wind Advisory     Coastal Flood Statement Coastal Flood Statement     Rip Current Statement Rip Current Statement     Rip Current Statement Rip Current Statement        SOUTHERN QUEENS  -  Wind Advisory Wind Advisory     Coastal Flood Statement Coastal Flood Statement     Rip Current Statement Rip Current Statement     Rip Current Statement Rip Current Statement        SOUTHWEST SUFFOLK  -  Wind Advisory Wind Advisory     Wind Advisory Wind Advisory     Rip Current Statement Rip Current Statement     Rip Current Statement Rip Current Statement      

Active alerts

Northern Queens
  Details for Northern Queens Wind Advisory  +3 additional alerts
Southern Queens
  Details for Southern Queens Wind Advisory  +3 additional alerts
Northern Nassau
  Details for Northern Nassau Wind Advisory  +4 additional alerts
Southern Nassau
  Details for Southern Nassau Wind Advisory  +4 additional alerts
Northwest Suffolk
  Details for Northwest Suffolk Wind Advisory  +3 additional alerts
Southwest Suffolk
  Details for Southwest Suffolk Wind Advisory  +3 additional alerts
Northeast Suffolk
  Details for Northeast Suffolk Wind Advisory  +3 additional alerts
Southeast Suffolk
  Details for Southeast Suffolk Wind Advisory  +3 additional alerts


WXM80 ListenWXM80 Stop

You find our weather info also at:

UK Metoffice

WeatherCloud

Weather Underground

Northeastern Weather Network

AWEKAS

Citizen Weather Observer Program (CWOP)

HAMweather, WeatherForYou, PWS Weather


Weather Underground History page Text

Daily Summary for July 9, 2016 Units:  English    Metric   Both
« Previous Day
Next Day »
Daily Weekly Monthly Yearly Custom
  High: Low: Average:
Temperature: 70.3 °F 64.6 °F 67.3 °F
Dew Point: 66.8 °F 61.0 °F 63.9 °F
Humidity: 96 % 82 % 89 %
Wind Speed: 4.7 mph 0.0 mph 0.8 mph
Wind Gust: 8.1 mph - -
Wind:- - ESE
Pressure: 29.87 in 29.78 in -
Precipitation: 0.06 in    
Historical Graphs
 
 
Tabular Data for July 9, 2016
Time Temperature Dew Point Pressure Wind Wind Speed Wind Gust Humidity Rainfall Rate (Hourly)
00:01 68.5 °F 63.5 °F 29.84 in ESE 0.2 mph 1.2 mph 84 % 0.00 in
00:06 68.4 °F 63.7 °F 29.84 in ESE 0.1 mph 1.2 mph 85 % 0.00 in
00:11 68.3 °F 63.3 °F 29.84 in ESE 0.7 mph 2.3 mph 84 % 0.00 in
00:16 68.2 °F 63.5 °F 29.84 in ESE 0.2 mph 1.2 mph 85 % 0.00 in
00:21 68.1 °F 63.4 °F 29.84 in ESE 0.1 mph 1.2 mph 85 % 0.00 in
00:26 68.1 °F 63.4 °F 29.84 in Calm   1.2 mph 85 % 0.00 in
00:31 68.1 °F 63.4 °F 29.84 in Calm   1.2 mph 85 % 0.00 in
00:36 68.0 °F 63.7 °F 29.84 in ESE 0.4 mph 1.2 mph 86 % 0.00 in
00:41 67.9 °F 63.6 °F 29.83 in ESE 0.5 mph 1.2 mph 86 % 0.00 in
00:46 67.9 °F 63.6 °F 29.83 in ESE 0.7 mph 1.2 mph 86 % 0.00 in
00:52 67.8 °F 63.5 °F 29.83 in ESE 1.8 mph 3.5 mph 86 % 0.00 in
00:57 67.6 °F 63.3 °F 29.83 in SE 1.7 mph 3.5 mph 86 % 0.00 in
01:02 67.6 °F 63.3 °F 29.83 in ESE 0.7 mph 2.3 mph 86 % 0.00 in
01:07 67.5 °F 62.8 °F 29.83 in East 0.4 mph 2.3 mph 85 % 0.00 in
01:12 67.4 °F 62.7 °F 29.83 in ESE 1.3 mph 4.0 mph 85 % 0.00 in
01:17 67.4 °F 62.7 °F 29.83 in SE 0.1 mph 1.2 mph 85 % 0.00 in
01:22 67.3 °F 62.6 °F 29.83 in SE 0.9 mph 2.3 mph 85 % 0.00 in
01:27 67.3 °F 62.6 °F 29.84 in SE 1.1 mph 2.0 mph 85 % 0.00 in
01:32 67.2 °F 62.5 °F 29.84 in SSE 0.9 mph 3.5 mph 85 % 0.00 in
01:37 67.2 °F 62.5 °F 29.83 in SE 1.3 mph 3.5 mph 85 % 0.00 in
01:43 67.2 °F 62.5 °F 29.83 in SE 0.7 mph 2.3 mph 85 % 0.00 in
01:48 67.2 °F 62.9 °F 29.83 in SE 0.6 mph 3.5 mph 86 % 0.00 in
01:53 67.1 °F 62.8 °F 29.83 in SE 0.1 mph 2.3 mph 86 % 0.00 in
01:58 67.1 °F 62.8 °F 29.83 in Calm     86 % 0.00 in
02:03 67.1 °F 63.1 °F 29.84 in Calm     87 % 0.00 in
02:08 67.0 °F 63.0 °F 29.83 in Calm     87 % 0.00 in
02:13 67.0 °F 63.0 °F 29.83 in SE 0.3 mph 1.2 mph 87 % 0.00 in
02:18 67.0 °F 62.7 °F 29.83 in Calm   1.2 mph 86 % 0.00 in
02:23 66.9 °F 62.6 °F 29.83 in Calm     86 % 0.00 in
02:28 66.9 °F 62.9 °F 29.83 in Calm     87 % 0.00 in
02:34 66.9 °F 62.9 °F 29.83 in Calm     87 % 0.00 in
02:39 66.8 °F 62.8 °F 29.83 in Calm     87 % 0.00 in
02:44 66.8 °F 62.8 °F 29.83 in Calm     87 % 0.00 in
02:49 66.8 °F 62.8 °F 29.83 in SE 0.3 mph 1.2 mph 87 % 0.00 in
02:54 66.7 °F 62.7 °F 29.83 in SE 0.6 mph 2.3 mph 87 % 0.00 in
02:59 66.7 °F 62.7 °F 29.83 in SE 0.4 mph 1.2 mph 87 % 0.00 in
03:04 66.6 °F 62.6 °F 29.83 in Calm   1.2 mph 87 % 0.00 in
03:09 66.6 °F 62.6 °F 29.83 in SE 0.3 mph 2.3 mph 87 % 0.00 in
03:14 66.6 °F 62.6 °F 29.83 in ENE 1.2 mph 3.5 mph 87 % 0.00 in
03:19 66.5 °F 62.8 °F 29.83 in ENE 2.2 mph 7.0 mph 88 % 0.00 in
03:25 66.5 °F 62.8 °F 29.83 in ENE 1.7 mph 3.5 mph 88 % 0.00 in
03:30 66.4 °F 62.7 °F 29.83 in ENE 1.4 mph 3.5 mph 88 % 0.00 in
03:35 66.3 °F 62.6 °F 29.83 in ENE 1.7 mph 2.3 mph 88 % 0.00 in
03:40 66.2 °F 62.5 °F 29.83 in ENE 1.2 mph 2.3 mph 88 % 0.00 in
03:45 66.2 °F 62.5 °F 29.83 in ENE 1.8 mph 2.3 mph 88 % 0.00 in
03:50 66.1 °F 62.8 °F 29.83 in ENE 1.9 mph 3.5 mph 89 % 0.00 in
03:55 66.1 °F 62.8 °F 29.82 in ENE 1.8 mph 3.5 mph 89 % 0.00 in
04:00 66.0 °F 62.7 °F 29.82 in ENE 2.1 mph 3.5 mph 89 % 0.00 in
04:05 65.9 °F 62.6 °F 29.82 in East 1.6 mph 3.5 mph 89 % 0.00 in
04:10 65.9 °F 62.6 °F 29.82 in ESE 1.5 mph 2.3 mph 89 % 0.00 in
04:16 65.8 °F 62.1 °F 29.82 in ESE 1.0 mph 2.0 mph 88 % 0.00 in
04:21 65.7 °F 62.4 °F 29.82 in East 2.0 mph 3.0 mph 89 % 0.00 in
04:26 65.6 °F 61.9 °F 29.82 in East 1.0 mph 3.0 mph 88 % 0.00 in
04:31 65.6 °F 62.3 °F 29.82 in East 1.0 mph 3.0 mph 89 % 0.00 in
04:36 65.5 °F 62.2 °F 29.82 in East 1.0 mph 3.0 mph 89 % 0.00 in
04:41 65.4 °F 62.1 °F 29.82 in East 1.0 mph 3.0 mph 89 % 0.00 in
04:46 65.4 °F 62.1 °F 29.82 in East 1.0 mph 2.0 mph 89 % 0.00 in
04:51 65.3 °F 62.0 °F 29.82 in East 1.0 mph 2.0 mph 89 % 0.00 in
04:56 65.2 °F 61.9 °F 29.81 in East 1.0 mph 3.0 mph 89 % 0.00 in
05:01 65.1 °F 61.8 °F 29.81 in ESE 1.3 mph 3.5 mph 89 % 0.00 in
05:06 65.0 °F 61.7 °F 29.81 in SE 0.7 mph 2.3 mph 89 % 0.00 in
05:11 65.0 °F 61.7 °F 29.82 in SE 0.2 mph 1.2 mph 89 % 0.00 in
05:16 65.0 °F 61.7 °F 29.82 in East 1.0 mph 2.3 mph 89 % 0.00 in
05:21 65.0 °F 61.7 °F 29.82 in East 0.2 mph 1.2 mph 89 % 0.00 in
05:26 64.9 °F 61.6 °F 29.83 in East 0.4 mph 1.2 mph 89 % 0.00 in
05:31 64.9 °F 61.6 °F 29.83 in East 0.5 mph 1.2 mph 89 % 0.00 in
05:36 64.9 °F 61.6 °F 29.83 in East 0.1 mph 1.2 mph 89 % 0.00 in
05:41 64.8 °F 61.5 °F 29.83 in East 0.3 mph 1.2 mph 89 % 0.00 in
05:47 64.8 °F 61.8 °F 29.83 in East 1.0 mph 2.3 mph 90 % 0.00 in
05:52 64.8 °F 61.8 °F 29.82 in East 0.8 mph 2.3 mph 90 % 0.00 in
05:57 64.8 °F 61.5 °F 29.83 in East 0.3 mph 1.2 mph 89 % 0.00 in
06:02 64.8 °F 61.5 °F 29.83 in East 0.4 mph 1.2 mph 89 % 0.00 in
06:07 64.7 °F 61.4 °F 29.83 in East 0.6 mph 2.3 mph 89 % 0.00 in
06:12 64.7 °F 61.4 °F 29.83 in East 0.8 mph 2.3 mph 89 % 0.00 in
06:17 64.7 °F 61.4 °F 29.83 in SE 1.2 mph 3.5 mph 89 % 0.00 in
06:22 64.7 °F 61.4 °F 29.83 in ESE 1.4 mph 2.3 mph 89 % 0.00 in
06:27 64.7 °F 61.4 °F 29.83 in ESE 0.4 mph 2.0 mph 89 % 0.00 in
06:32 64.7 °F 61.4 °F 29.84 in ESE 0.5 mph 1.2 mph 89 % 0.00 in
06:38 64.6 °F 61.3 °F 29.84 in ESE 0.6 mph 2.3 mph 89 % 0.00 in
06:43 64.6 °F 61.3 °F 29.84 in ESE 0.8 mph 2.3 mph 89 % 0.00 in
06:48 64.6 °F 61.3 °F 29.85 in ESE 0.7 mph 1.2 mph 89 % 0.00 in
06:53 64.6 °F 61.3 °F 29.85 in ESE 0.9 mph 2.3 mph 89 % 0.00 in
06:58 64.6 °F 61.3 °F 29.85 in ESE 0.6 mph 1.2 mph 89 % 0.00 in
07:03 64.6 °F 61.0 °F 29.85 in ESE 0.1 mph 1.2 mph 88 % 0.00 in
07:08 64.6 °F 61.3 °F 29.85 in ESE 1.0 mph 2.3 mph 89 % 0.00 in
07:13 64.6 °F 61.3 °F 29.85 in NNE 0.3 mph 1.2 mph 89 % 0.00 in
07:18 64.6 °F 61.3 °F 29.85 in North 0.2 mph 1.2 mph 89 % 0.00 in
07:23 64.7 °F 61.4 °F 29.85 in North 0.4 mph 1.2 mph 89 % 0.00 in
07:29 64.7 °F 61.4 °F 29.86 in North 0.5 mph 1.2 mph 89 % 0.00 in
07:34 64.7 °F 61.4 °F 29.86 in Calm   1.2 mph 89 % 0.00 in
07:39 64.7 °F 61.4 °F 29.86 in North 1.0 mph 2.3 mph 89 % 0.00 in
07:44 64.7 °F 61.4 °F 29.86 in North 0.9 mph 2.3 mph 89 % 0.00 in
07:49 64.8 °F 61.5 °F 29.85 in North 0.4 mph 1.2 mph 89 % 0.00 in
07:54 64.9 °F 61.6 °F 29.86 in North 0.1 mph 1.2 mph 89 % 0.00 in
07:59 65.0 °F 61.7 °F 29.86 in NE 1.2 mph 2.3 mph 89 % 0.00 in
08:04 65.0 °F 61.7 °F 29.86 in ENE 0.6 mph 1.2 mph 89 % 0.00 in
08:09 65.2 °F 61.9 °F 29.86 in ENE 1.1 mph 2.3 mph 89 % 0.00 in
08:14 65.3 °F 62.0 °F 29.86 in ENE 0.9 mph 1.2 mph 89 % 0.00 in
08:20 65.4 °F 62.1 °F 29.86 in ENE 1.0 mph 2.3 mph 89 % 0.00 in
08:25 65.5 °F 61.9 °F 29.87 in ENE 0.9 mph 2.3 mph 88 % 0.00 in
08:30 65.5 °F 61.9 °F 29.87 in ENE 0.9 mph 2.3 mph 88 % 0.00 in
08:35 65.6 °F 61.6 °F 29.86 in ENE 1.3 mph 2.3 mph 87 % 0.00 in
08:40 65.7 °F 62.0 °F 29.86 in ENE 0.5 mph 2.3 mph 88 % 0.00 in
08:45 65.8 °F 62.1 °F 29.86 in ENE 1.2 mph 2.3 mph 88 % 0.00 in
08:50 65.9 °F 62.2 °F 29.86 in ENE 1.1 mph 2.3 mph 88 % 0.00 in
08:55 66.1 °F 62.1 °F 29.86 in ENE 1.2 mph 2.3 mph 87 % 0.00 in
09:00 66.2 °F 62.2 °F 29.86 in ENE 1.3 mph 2.3 mph 87 % 0.00 in
09:05 66.3 °F 62.3 °F 29.86 in ENE 1.0 mph 2.3 mph 87 % 0.00 in
09:11 66.5 °F 62.8 °F 29.85 in East 0.6 mph 2.3 mph 88 % 0.00 in
09:16 66.6 °F 62.6 °F 29.85 in Calm   1.0 mph 87 % 0.00 in
09:21 66.7 °F 62.4 °F 29.85 in Calm   2.0 mph 86 % 0.00 in
09:26 66.8 °F 62.5 °F 29.85 in Calm   1.0 mph 86 % 0.00 in
09:31 66.8 °F 62.5 °F 29.85 in Calm   1.0 mph 86 % 0.00 in
09:36 66.9 °F 62.2 °F 29.85 in Calm   2.0 mph 85 % 0.00 in
09:41 66.9 °F 62.2 °F 29.85 in Calm   2.0 mph 85 % 0.00 in
09:46 67.0 °F 62.7 °F 29.85 in East 1.0 mph 2.0 mph 86 % 0.00 in
09:51 67.2 °F 62.9 °F 29.84 in East 1.0 mph 2.0 mph 86 % 0.00 in
09:56 67.4 °F 63.1 °F 29.84 in East 1.0 mph 2.0 mph 86 % 0.00 in
10:01 67.5 °F 62.8 °F 29.83 in ESE 0.7 mph 2.3 mph 85 % 0.00 in
10:06 67.9 °F 63.6 °F 29.83 in ESE 1.5 mph 3.5 mph 86 % 0.00 in
10:11 68.4 °F 63.7 °F 29.83 in ESE 0.4 mph 3.5 mph 85 % 0.00 in
10:16 68.7 °F 63.7 °F 29.83 in SE 4.0 mph 8.1 mph 84 % 0.00 in
10:21 68.8 °F 63.4 °F 29.84 in SSE 0.9 mph 3.5 mph 83 % 0.00 in
10:26 69.0 °F 64.0 °F 29.84 in SE 0.7 mph 2.3 mph 84 % 0.00 in
10:31 69.0 °F 63.6 °F 29.84 in SE 0.7 mph 2.3 mph 83 % 0.00 in
10:36 69.0 °F 63.3 °F 29.84 in SSE 1.0 mph 3.5 mph 82 % 0.00 in
10:41 69.0 °F 63.6 °F 29.85 in NE 0.6 mph 3.5 mph 83 % 0.00 in
10:47 69.1 °F 64.1 °F 29.85 in Calm     84 % 0.00 in
10:52 69.1 °F 63.7 °F 29.84 in NE 0.3 mph 1.0 mph 83 % 0.00 in
10:57 69.0 °F 64.0 °F 29.84 in NNE 0.2 mph 1.2 mph 84 % 0.00 in
11:02 69.0 °F 64.0 °F 29.84 in NNE 0.1 mph 1.2 mph 84 % 0.00 in
11:07 69.1 °F 64.1 °F 29.84 in Calm   1.2 mph 84 % 0.00 in
11:12 69.1 °F 63.7 °F 29.83 in NE 1.3 mph 3.5 mph 83 % 0.00 in
11:17 69.2 °F 63.8 °F 29.83 in ENE 0.7 mph 4.0 mph 83 % 0.00 in
11:22 69.2 °F 63.8 °F 29.83 in ENE 0.8 mph 3.5 mph 83 % 0.00 in
11:27 69.2 °F 64.2 °F 29.83 in ENE 1.4 mph 3.5 mph 84 % 0.00 in
11:32 69.2 °F 63.8 °F 29.83 in NE 2.0 mph 4.0 mph 83 % 0.00 in
11:38 69.1 °F 63.7 °F 29.83 in ENE 3.2 mph 4.6 mph 83 % 0.00 in
11:43 69.0 °F 64.0 °F 29.83 in ENE 2.1 mph 3.5 mph 84 % 0.00 in
11:48 68.9 °F 63.5 °F 29.83 in ENE 1.6 mph 3.5 mph 83 % 0.00 in
11:53 68.8 °F 63.8 °F 29.84 in NE 4.1 mph 8.1 mph 84 % 0.00 in
11:58 68.7 °F 63.7 °F 29.84 in ENE 2.1 mph 3.5 mph 84 % 0.00 in
12:03 68.6 °F 63.6 °F 29.84 in NE 2.5 mph 5.0 mph 84 % 0.00 in
12:08 68.5 °F 63.5 °F 29.84 in NE 3.0 mph 3.5 mph 84 % 0.00 in
12:13 68.4 °F 63.7 °F 29.84 in NE 2.3 mph 5.0 mph 85 % 0.00 in
12:18 68.3 °F 63.6 °F 29.84 in ENE 1.5 mph 2.3 mph 85 % 0.00 in
12:23 68.3 °F 63.3 °F 29.84 in NE 2.4 mph 8.1 mph 84 % 0.00 in
12:29 68.2 °F 63.5 °F 29.83 in ENE 1.3 mph 3.5 mph 85 % 0.00 in
12:34 68.2 °F 63.9 °F 29.83 in NE 1.5 mph 3.5 mph 86 % 0.00 in
12:39 68.3 °F 63.9 °F 29.83 in ENE 0.4 mph 4.6 mph 86 % 0.00 in
12:44 68.5 °F 64.1 °F 29.83 in ENE 1.6 mph 3.5 mph 86 % 0.00 in
12:49 68.7 °F 64.3 °F 29.83 in ENE 2.0 mph 3.5 mph 86 % 0.00 in
12:54 68.8 °F 64.4 °F 29.82 in ENE 1.5 mph 3.5 mph 86 % 0.00 in
12:59 69.0 °F 64.6 °F 29.82 in ENE 1.3 mph 2.3 mph 86 % 0.00 in
13:04 69.2 °F 64.5 °F 29.82 in NE 1.5 mph 3.0 mph 85 % 0.00 in
13:09 69.5 °F 65.1 °F 29.82 in ENE 1.0 mph 2.3 mph 86 % 0.00 in
13:14 69.7 °F 65.0 °F 29.83 in ENE 1.2 mph 2.3 mph 85 % 0.00 in
13:20 69.8 °F 65.1 °F 29.83 in ENE 1.3 mph 2.3 mph 85 % 0.00 in
13:25 69.9 °F 64.8 °F 29.83 in ENE 2.2 mph 3.5 mph 84 % 0.00 in
13:30 69.8 °F 64.7 °F 29.83 in ENE 1.5 mph 4.6 mph 84 % 0.00 in
13:35 69.5 °F 64.1 °F 29.83 in ENE 2.2 mph 3.5 mph 83 % 0.00 in
13:40 69.4 °F 64.7 °F 29.83 in ENE 0.2 mph 1.2 mph 85 % 0.00 in
13:45 69.3 °F 64.6 °F 29.83 in ENE 1.6 mph 3.5 mph 85 % 0.00 in
13:50 69.2 °F 64.8 °F 29.82 in NE 2.0 mph 3.5 mph 86 % 0.00 in
13:55 69.2 °F 64.8 °F 29.83 in NE 1.1 mph 2.3 mph 86 % 0.00 in
14:00 69.2 °F 64.8 °F 29.82 in ENE 1.4 mph 2.3 mph 86 % 0.00 in
14:05 69.2 °F 64.8 °F 29.82 in ENE 1.3 mph 3.5 mph 86 % 0.00 in
14:11 69.2 °F 64.8 °F 29.82 in ENE 1.0 mph 3.0 mph 86 % 0.00 in
14:16 69.3 °F 64.9 °F 29.83 in ENE 1.0 mph 2.3 mph 86 % 0.00 in
14:21 69.3 °F 65.3 °F 29.82 in ENE 2.0 mph 3.0 mph 87 % 0.00 in
14:26 69.3 °F 65.3 °F 29.82 in ENE 1.0 mph 3.0 mph 87 % 0.00 in
14:31 69.3 °F 64.9 °F 29.83 in East 0.9 mph 4.6 mph 86 % 0.00 in
14:36 69.2 °F 65.2 °F 29.82 in East 1.0 mph 3.0 mph 87 % 0.00 in
14:41 69.2 °F 65.2 °F 29.83 in East 1.0 mph 2.0 mph 87 % 0.00 in
14:46 69.2 °F 65.2 °F 29.83 in ENE 1.2 mph 2.3 mph 87 % 0.00 in
14:51 69.2 °F 65.5 °F 29.82 in ENE 1.0 mph 2.0 mph 88 % 0.00 in
14:56 69.3 °F 65.6 °F 29.83 in Calm   2.0 mph 88 % 0.00 in
15:01 69.3 °F 65.6 °F 29.82 in ENE 1.0 mph 2.3 mph 88 % 0.00 in
15:06 69.4 °F 65.7 °F 29.82 in ENE 1.0 mph 2.0 mph 88 % 0.00 in
15:11 69.4 °F 65.7 °F 29.82 in Calm   2.0 mph 88 % 0.00 in
15:16 69.5 °F 66.1 °F 29.82 in ENE 0.7 mph 1.2 mph 89 % 0.00 in
15:21 69.5 °F 66.1 °F 29.82 in Calm   1.0 mph 89 % 0.00 in
15:26 69.5 °F 66.1 °F 29.82 in Calm   1.0 mph 89 % 0.00 in
15:31 69.6 °F 66.2 °F 29.82 in Calm     89 % 0.00 in
15:36 69.6 °F 66.2 °F 29.82 in Calm     89 % 0.00 in
15:41 69.7 °F 66.3 °F 29.82 in Calm   1.0 mph 89 % 0.00 in
15:46 69.8 °F 66.4 °F 29.81 in ENE 0.1 mph   89 % 0.00 in
15:51 69.9 °F 66.2 °F 29.81 in Calm   1.0 mph 88 % 0.00 in
15:56 70.1 °F 66.7 °F 29.81 in Calm   1.0 mph 89 % 0.00 in
16:01 70.1 °F 66.4 °F 29.81 in ESE 0.3 mph 2.3 mph 88 % 0.00 in
16:06 70.2 °F 66.5 °F 29.81 in SE 1.0 mph 5.0 mph 88 % 0.00 in
16:11 70.3 °F 66.6 °F 29.81 in SE 1.0 mph 7.0 mph 88 % 0.00 in
16:16 70.2 °F 65.8 °F 29.81 in Calm   8.0 mph 86 % 0.00 in
16:21 70.2 °F 66.1 °F 29.82 in SE 1.0 mph 5.0 mph 87 % 0.00 in
16:26 70.2 °F 66.1 °F 29.82 in SE 1.0 mph 3.0 mph 87 % 0.00 in
16:31 70.1 °F 66.1 °F 29.81 in Calm   4.0 mph 87 % 0.00 in
16:36 70.1 °F 66.0 °F 29.81 in SE 1.0 mph 3.0 mph 87 % 0.00 in
16:41 69.9 °F 65.9 °F 29.82 in Calm   2.0 mph 87 % 0.00 in
16:46 69.9 °F 66.5 °F 29.81 in SE 1.0 mph 4.0 mph 89 % 0.01 in
16:51 69.8 °F 66.4 °F 29.81 in SE 1.0 mph 5.0 mph 89 % 0.00 in
16:56 69.6 °F 66.6 °F 29.80 in Calm   2.0 mph 90 % 0.00 in
17:01 69.4 °F 66.3 °F 29.80 in SE 0.9 mph 2.3 mph 90 % 0.03 in
17:06 69.3 °F 66.6 °F 29.80 in Calm   4.0 mph 91 % 0.00 in
17:11 69.3 °F 66.5 °F 29.80 in Calm   2.0 mph 91 % 0.00 in
17:16 69.2 °F 66.5 °F 29.80 in Calm   1.0 mph 91 % 0.00 in
17:21 69.1 °F 66.7 °F 29.80 in Calm   1.0 mph 92 % 0.00 in
17:26 69.0 °F 66.6 °F 29.80 in Calm   1.0 mph 92 % 0.00 in
17:31 69.0 °F 66.6 °F 29.80 in SSE 1.0 mph 3.0 mph 92 % 0.00 in
17:36 68.9 °F 66.5 °F 29.80 in Calm   3.0 mph 92 % 0.00 in
17:41 68.9 °F 66.8 °F 29.80 in Calm   1.0 mph 93 % 0.00 in
17:46 68.8 °F 66.7 °F 29.80 in Calm   2.0 mph 93 % 0.00 in
17:51 68.7 °F 66.6 °F 29.80 in SSE 1.0 mph 3.0 mph 93 % 0.00 in
17:56 68.6 °F 66.5 °F 29.80 in SSE 1.0 mph 3.0 mph 93 % 0.00 in
18:01 68.5 °F 66.4 °F 29.80 in SE 0.9 mph 2.3 mph 93 % 0.00 in
18:06 68.5 °F 66.4 °F 29.80 in SE 3.0 mph 6.0 mph 93 % 0.00 in
18:11 68.5 °F 66.4 °F 29.80 in SE 1.0 mph 3.0 mph 93 % 0.00 in
18:16 68.4 °F 66.3 °F 29.80 in Calm   2.0 mph 93 % 0.00 in
18:21 68.3 °F 66.2 °F 29.80 in Calm   2.0 mph 93 % 0.00 in
18:26 68.3 °F 66.2 °F 29.80 in Calm   2.0 mph 93 % 0.00 in
18:31 68.3 °F 66.5 °F 29.80 in Calm   2.0 mph 94 % 0.00 in
18:36 68.2 °F 66.1 °F 29.80 in SE 1.7 mph 4.6 mph 93 % 0.00 in
18:41 68.1 °F 66.0 °F 29.79 in Calm   2.0 mph 93 % 0.00 in
18:46 68.1 °F 66.0 °F 29.80 in Calm   4.0 mph 93 % 0.00 in
18:51 68.0 °F 65.9 °F 29.80 in Calm   1.0 mph 93 % 0.00 in
18:56 68.0 °F 65.9 °F 29.79 in SE 1.0 mph 3.0 mph 93 % 0.00 in
19:01 67.9 °F 65.8 °F 29.79 in SE 0.2 mph 3.5 mph 93 % 0.00 in
19:06 67.8 °F 65.7 °F 29.79 in SE 0.8 mph 2.3 mph 93 % 0.00 in
19:11 67.7 °F 65.6 °F 29.79 in SSE 1.0 mph 2.0 mph 93 % 0.00 in
19:16 67.6 °F 65.5 °F 29.79 in SSE 0.3 mph 1.2 mph 93 % 0.00 in
19:21 67.6 °F 65.5 °F 29.79 in SE 0.4 mph 2.3 mph 93 % 0.00 in
19:26 67.5 °F 65.4 °F 29.79 in SE 1.3 mph 3.5 mph 93 % 0.00 in
19:31 67.4 °F 65.3 °F 29.78 in SE 0.4 mph 2.3 mph 93 % 0.00 in
19:36 67.3 °F 65.2 °F 29.79 in SE 0.9 mph 2.3 mph 93 % 0.00 in
19:41 67.3 °F 65.2 °F 29.79 in ESE 1.5 mph 5.0 mph 93 % 0.00 in
19:46 67.1 °F 65.0 °F 29.79 in SE 1.3 mph 3.5 mph 93 % 0.00 in
19:51 67.1 °F 65.0 °F 29.79 in SE 0.5 mph 3.5 mph 93 % 0.00 in
19:57 67.0 °F 64.9 °F 29.80 in Calm   2.3 mph 93 % 0.00 in
20:02 67.0 °F 64.9 °F 29.80 in SSE 2.5 mph 3.5 mph 93 % 0.00 in
20:07 66.9 °F 64.8 °F 29.79 in SE 0.7 mph 4.6 mph 93 % 0.00 in
20:12 66.9 °F 64.8 °F 29.79 in SE 4.7 mph 8.1 mph 93 % 0.00 in
20:17 66.8 °F 64.7 °F 29.79 in Calm     93 % 0.00 in
20:22 66.8 °F 64.7 °F 29.79 in SE 0.4 mph 2.0 mph 93 % 0.00 in
20:27 66.8 °F 64.7 °F 29.79 in SE 0.4 mph 1.2 mph 93 % 0.00 in
20:32 66.8 °F 65.0 °F 29.79 in SE 0.8 mph 3.0 mph 94 % 0.00 in
20:37 66.7 °F 64.9 °F 29.79 in SE 0.1 mph 2.3 mph 94 % 0.00 in
20:42 66.7 °F 64.9 °F 29.79 in Calm     94 % 0.00 in
20:48 66.6 °F 64.8 °F 29.80 in SE 0.6 mph 3.5 mph 94 % 0.00 in
20:53 66.6 °F 64.8 °F 29.80 in Calm   1.2 mph 94 % 0.00 in
20:58 66.6 °F 64.8 °F 29.80 in SE 0.2 mph 1.2 mph 94 % 0.00 in
21:03 66.5 °F 64.7 °F 29.79 in SSE 1.4 mph 3.5 mph 94 % 0.00 in
21:08 66.5 °F 64.7 °F 29.80 in SSE 0.2 mph 1.2 mph 94 % 0.00 in
21:13 66.5 °F 64.7 °F 29.81 in SSE 0.7 mph 1.2 mph 94 % 0.00 in
21:18 66.5 °F 64.7 °F 29.81 in Calm     94 % 0.00 in
21:23 66.4 °F 64.6 °F 29.81 in Calm     94 % 0.00 in
21:28 66.4 °F 64.6 °F 29.81 in Calm     94 % 0.00 in
21:33 66.4 °F 64.6 °F 29.81 in Calm     94 % 0.00 in
21:39 66.4 °F 64.6 °F 29.81 in Calm     94 % 0.00 in
21:44 66.4 °F 64.9 °F 29.81 in Calm     95 % 0.00 in
21:49 66.4 °F 64.9 °F 29.82 in Calm     95 % 0.00 in
21:54 66.4 °F 64.9 °F 29.82 in Calm   1.0 mph 95 % 0.00 in
21:59 66.4 °F 64.9 °F 29.82 in Calm     95 % 0.00 in
22:04 66.3 °F 64.8 °F 29.81 in Calm   1.2 mph 95 % 0.00 in
22:09 66.3 °F 64.8 °F 29.81 in Calm   1.2 mph 95 % 0.00 in
22:14 66.2 °F 64.7 °F 29.81 in Calm     95 % 0.00 in
22:19 66.2 °F 64.7 °F 29.80 in SSE 0.3 mph 1.2 mph 95 % 0.00 in
22:24 66.2 °F 64.7 °F 29.81 in Calm     95 % 0.00 in
22:30 66.1 °F 64.6 °F 29.81 in Calm   1.2 mph 95 % 0.00 in
22:35 66.1 °F 64.6 °F 29.82 in Calm     95 % 0.00 in
22:40 66.0 °F 64.5 °F 29.83 in NE 0.7 mph 3.0 mph 95 % 0.00 in
22:45 66.0 °F 64.5 °F 29.82 in NE 0.4 mph 2.3 mph 95 % 0.00 in
22:50 66.0 °F 64.8 °F 29.82 in NE 1.8 mph 3.5 mph 96 % 0.00 in
22:55 66.0 °F 64.8 °F 29.82 in NE 0.5 mph 1.2 mph 96 % 0.00 in
23:00 66.0 °F 64.8 °F 29.83 in NE 0.5 mph 3.5 mph 96 % 0.00 in
23:05 65.9 °F 64.7 °F 29.83 in NW 1.5 mph 3.5 mph 96 % 0.00 in
23:10 65.9 °F 64.7 °F 29.82 in Calm     96 % 0.00 in
23:15 65.9 °F 64.7 °F 29.81 in Calm     96 % 0.01 in
23:21 65.9 °F 64.7 °F 29.82 in Calm     96 % 0.00 in
23:25 65.9 °F 64.7 °F 29.81 in Calm     96 % 0.02 in
23:30 65.8 °F 64.6 °F 29.81 in Calm     96 % 0.00 in
23:36 65.8 °F 64.6 °F 29.81 in Calm   1.0 mph 96 % 0.00 in
23:40 65.8 °F 64.6 °F 29.80 in Calm     96 % 0.02 in
23:46 65.7 °F 64.5 °F 29.80 in Calm   1.0 mph 96 % 0.00 in
23:50 65.7 °F 64.5 °F 29.80 in Calm   1.0 mph 96 % 0.00 in
23:56 65.7 °F 64.5 °F 29.79 in Calm   1.2 mph 96 % 0.03 in
Crab Meadow Weather
Compliments of Weather Underground - 3 mb

Script developed by  Jim McMurry - jmcmurry@mwt.net Adapted for the template by  Wim van der Kuil - Leuven-Template.eu

Recycling: The average American uses seven trees a year in paper, wood, and other products made from trees. This amounts to about 2,000,000,000 trees per year!